Location: Harrison
(47.4490°N, 116.7734°W)
Time: 12:15:14
(UTC+00:00)

ISS - Visible Passes

Search period start: 20 July 2024 00:00
Search period end: 30 July 2024 00:00
Orbit: 409 x 423 km, 51.6° (Epoch: 20 July)

Date Brightness Start Highest point End Pass type
(mag) Time Alt. Az. Time Alt. Az. Time Alt. Az.
20 Jul -3.5 05:34:20 10° WNW 05:37:38 65° NNE 05:39:23 25° E visible
20 Jul -1.4 07:11:19 10° W 07:12:15 16° W 07:12:15 16° W visible
21 Jul -3.1 04:45:53 10° WNW 04:49:08 51° NNE 04:52:23 10° E visible
21 Jul -2.9 06:22:41 10° WNW 06:25:18 38° WSW 06:25:18 38° WSW visible
22 Jul -3.8 05:34:08 10° WNW 05:37:26 66° SSW 05:38:22 41° SE visible
23 Jul -3.8 04:45:35 10° WNW 04:48:55 86° NNE 04:51:26 16° ESE visible
23 Jul -1.6 06:22:53 10° W 06:24:19 17° WSW 06:24:19 17° WSW visible
24 Jul -2.7 05:33:58 10° W 05:36:54 29° SW 05:37:24 28° SSW visible
25 Jul -3.2 04:45:13 10° WNW 04:48:25 45° SSW 04:50:29 19° SSE visible
26 Jul -1.4 05:34:27 10° WSW 05:36:03 13° SW 05:36:28 13° SW visible
27 Jul -1.9 04:45:03 10° W 04:47:34 20° SW 04:49:36 13° S visible
